sat.trackr.live / text

‹ back to catalog

STARLINK-6042

NORAD 56808 · 2023-078AT

PAYLOAD ACTIVE UNKNOWN

§ Identity

Operator
Country
US
Launch date
2023-05-31
Launch site
AFWTR
Launch vehicle
Mass (kg)
RCS (m²)

Purposes: comms

External: N2YO · Heavens-Above · Gunter

§ Orbital elements

Epoch: 2026-09-20T22:34:40.802592Z

Period
96.11 min
Inclination
69.9988°
Eccentricity
0.0002821
Mean motion
14.98328772 rev/d
Perigee alt
570.1 km
Apogee alt
574.0 km
Semi-major
6,950.2 km
B*
-1.3289e-5
RAAN
142.2422°
Arg perigee
270.1077°
Mean anomaly
89.9758°
Rev number
18,366

§ Raw data

STARLINK-60421 56808U 23078AT  26263.94075003 -.00000252  00000+0 -13289-4 0  99912 56808  69.9988 142.2422 0002821 270.1077  89.9758 14.98328772183663

JSON: /api/v1/satellites/56808 · /tle

For live sub-satellite position, see the globe view (requires WebGL).

§ Visibility from observer

Set your observer location to see the next 7 days of passes ≥ 10°. The values pass through the URL so the page stays shareable.

No JS? Fill the form by hand. The geolocation button needs JavaScript.